This is the latest recevied weather packets stored in our database for station/object NO9B. If no packets are shown the sender has not sent any weather packets the latest 10 day(s).
| Time | Temp. | Humidity | Pressure | Rain* | Wind** | Luminosity | Snow |
|---|---|---|---|---|---|---|---|
| 1788642561 | 25° C | 82% | 1017.6 hPa | 0 mm | - | 79 W/m² | - |
| 1788642261 | 25.56° C | 80% | 1017.6 hPa | 0 mm | - | 120 W/m² | - |
| 1788641960 | 25.56° C | 81% | 1017.3 hPa | 0 mm | - | 166 W/m² | - |
| 1788641655 | 25.56° C | 80% | 1017.4 hPa | 0 mm | - | 183 W/m² | - |
| 1788641354 | 26.11° C | 78% | 1017.5 hPa | 0 mm | - | 149 W/m² | - |
| 1788641050 | 26.11° C | 78% | 1017.6 hPa | 0 mm | - | 198 W/m² | - |
| 1788640749 | 26.11° C | 78% | 1017.5 hPa | 0 mm | - | 123 W/m² | - |
| 1788640444 | 26.11° C | 79% | 1017.5 hPa | 0 mm | - | 203 W/m² | - |
| 1788640140 | 26.11° C | 79% | 1017.5 hPa | 0 mm | - | 464 W/m² | - |
| 1788639835 | 26.11° C | 78% | 1017.4 hPa | 0 mm | - | 389 W/m² | - |
| 1788639531 | 26.11° C | 80% | 1017.5 hPa | 0 mm | - | 125 W/m² | - |
| 1788639226 | 26.67° C | 78% | 1017.5 hPa | 0 mm | - | 83 W/m² | - |
| 1788638941 | 26.67° C | 80% | 1017.5 hPa | 0 mm | - | 223 W/m² | - |
| 1788638622 | 26.11° C | 79% | 1017.5 hPa | 0 mm | - | 261 W/m² | - |
| 1788638320 | 26.67° C | 78% | 1017.7 hPa | 0 mm | - | 66 W/m² | - |
| 1788638015 | 26.67° C | 78% | 1017.5 hPa | 0 mm | - | 561 W/m² | - |
| 1788637711 | 26.67° C | 80% | 1017.5 hPa | 0 mm | - | 255 W/m² | - |
| 1788637410 | 26.11° C | 81% | 1017.5 hPa | 0 mm | - | 582 W/m² | - |
| 1788637110 | 26.11° C | 81% | 1017.6 hPa | 0 mm | - | 366 W/m² | - |
| 1788636805 | 26.11° C | 80% | 1017.5 hPa | 0 mm | - | 152 W/m² | - |
| 1788636500 | 26.11° C | 81% | 1017.4 hPa | 0 mm | - | 241 W/m² | - |
| 1788636196 | 26.11° C | 81% | 1017.3 hPa | 0 mm | - | 237 W/m² | - |
| 1788635895 | 26.67° C | 82% | 1017.5 hPa | 0 mm | - | 200 W/m² | - |
| 1788635594 | 26.67° C | 81% | 1017.4 hPa | 0 mm | - | 652 W/m² | - |
| 1788635293 | 26.67° C | 80% | 1017.4 hPa | 0 mm | - | 65 W/m² | - |
* Rain latest hour (hover to see other rain measurements)
** Current wind speed in m/s (hover to see current wind gust speed)